timestamp,wind_dir_avg,wind_spd_avg,wind_spd_max_dir,wind_spd_gust,battery_voltage,lat,long
2023-01-12 00:04:00+00:00,307.0,6.55,308.0,8.79,12.41,47.59359,-54.27349
2023-01-12 00:14:00+00:00,310.0,5.61,308.0,7.2,12.33,47.59359,-54.27349
2023-01-12 00:24:00+00:00,300.0,6.37,303.0,7.45,12.33,47.59359,-54.27349
2023-01-12 00:34:00+00:00,271.0,2.9,268.0,4.55,12.33,47.59359,-54.27349
2023-01-12 00:44:00+00:00,276.0,4.33,284.0,6.29,12.33,47.59359,-54.27349
2023-01-12 00:54:00+00:00,284.0,6.11,286.0,6.99,12.33,47.59359,-54.27349
2023-01-12 01:04:00+00:00,272.0,5.78,275.0,6.9,12.33,47.59359,-54.27349
2023-01-12 01:14:00+00:00,271.0,5.4,272.0,6.29,12.33,47.59359,-54.27349
2023-01-12 01:24:00+00:00,271.0,5.41,269.0,6.29,12.33,47.59359,-54.27349
2023-01-12 01:34:00+00:00,269.0,5.9,263.0,6.58,12.33,47.59359,-54.27349
2023-01-12 01:44:00+00:00,269.0,5.69,272.0,6.91,12.33,47.59359,-54.27349
2023-01-12 01:54:00+00:00,276.0,6.71,276.0,7.49,12.33,47.59359,-54.27349
2023-01-12 02:04:00+00:00,276.0,6.72,270.0,7.74,12.33,47.59359,-54.27349
2023-01-12 02:14:00+00:00,277.0,6.64,277.0,8.14,12.33,47.59359,-54.27349
2023-01-12 02:24:00+00:00,281.0,6.79,297.0,7.76,12.33,47.59359,-54.27349
2023-01-12 02:34:00+00:00,288.0,5.55,287.0,6.75,12.33,47.59359,-54.27349
2023-01-12 02:44:00+00:00,289.0,5.87,292.0,6.92,12.33,47.59359,-54.27349
2023-01-12 02:54:00+00:00,276.0,4.55,283.0,6.06,12.33,47.59359,-54.27349
2023-01-12 03:04:00+00:00,277.0,4.27,272.0,5.7,12.33,47.59359,-54.27349
2023-01-12 03:14:00+00:00,265.0,4.58,259.0,6.0,12.25,47.59359,-54.27349
2023-01-12 03:24:00+00:00,261.0,4.26,268.0,5.66,12.25,47.59359,-54.27349
2023-01-12 03:34:00+00:00,252.0,4.05,258.0,5.73,12.25,47.59359,-54.27349
2023-01-12 03:44:00+00:00,251.0,5.42,247.0,6.8,12.25,47.59359,-54.27349
2023-01-12 03:54:00+00:00,236.0,2.62,246.0,3.33,12.25,47.59359,-54.27349
2023-01-12 04:04:00+00:00,250.0,4.56,260.0,6.36,12.25,47.59359,-54.27349
2023-01-12 04:14:00+00:00,247.0,4.82,250.0,6.37,12.25,47.59359,-54.27349
2023-01-12 04:24:00+00:00,274.0,3.17,267.0,4.58,12.25,47.59359,-54.27349
2023-01-12 04:34:00+00:00,289.0,4.24,282.0,6.79,12.25,47.59359,-54.27349
2023-01-12 04:44:00+00:00,289.0,5.2,288.0,8.05,12.25,47.59359,-54.27349
2023-01-12 04:54:00+00:00,280.0,7.13,283.0,8.39,12.25,47.59359,-54.27349
2023-01-12 05:04:00+00:00,286.0,6.63,290.0,7.93,12.25,47.59359,-54.27349
2023-01-12 05:14:01+00:00,278.0,7.82,280.0,8.3,12.17,47.59359,-54.27349
2023-01-12 05:24:01+00:00,269.0,6.36,273.0,8.42,12.17,47.59359,-54.27349
2023-01-12 05:34:01+00:00,276.0,8.27,279.0,9.36,12.17,47.59359,-54.27349
2023-01-12 05:44:01+00:00,284.0,4.63,281.0,7.24,12.17,47.59359,-54.27349
2023-01-12 05:54:01+00:00,295.0,5.51,297.0,6.61,12.17,47.59359,-54.27349
2023-01-12 06:04:01+00:00,300.0,6.76,301.0,7.97,12.17,47.59359,-54.27349
2023-01-12 06:14:01+00:00,295.0,6.6,299.0,8.07,12.17,47.59359,-54.27349
2023-01-12 06:24:01+00:00,292.0,6.31,283.0,7.57,12.17,47.59359,-54.27349
2023-01-12 06:34:01+00:00,297.0,7.03,293.0,8.21,12.17,47.59359,-54.27349
2023-01-12 06:44:01+00:00,304.0,7.08,304.0,7.85,12.17,47.59359,-54.27349
2023-01-12 06:54:01+00:00,299.0,4.52,294.0,6.68,12.17,47.59359,-54.27349
2023-01-12 07:04:01+00:00,300.0,6.37,303.0,7.8,12.17,47.59359,-54.27349
2023-01-12 07:14:01+00:00,290.0,5.66,293.0,6.58,12.17,47.59359,-54.27349
2023-01-12 07:24:01+00:00,269.0,6.66,269.0,8.15,12.17,47.59359,-54.27349
2023-01-12 07:34:01+00:00,262.0,6.45,266.0,7.23,12.17,47.59359,-54.27349
2023-01-12 07:44:01+00:00,276.0,5.24,271.0,7.32,12.17,47.59359,-54.27349
2023-01-12 07:54:01+00:00,283.0,4.8,283.0,6.04,12.17,47.59359,-54.27349
2023-01-12 08:04:01+00:00,274.0,7.2,277.0,8.14,12.17,47.59359,-54.27349
2023-01-12 08:14:00+00:00,283.0,7.67,284.0,8.31,12.17,47.59359,-54.27349
2023-01-12 08:24:00+00:00,277.0,7.21,286.0,8.62,12.17,47.59359,-54.27349
2023-01-12 08:34:00+00:00,278.0,5.8,287.0,7.04,12.17,47.59359,-54.27349
2023-01-12 08:44:00+00:00,293.0,7.51,284.0,9.57,12.17,47.59359,-54.27349
2023-01-12 08:54:00+00:00,290.0,7.76,302.0,8.77,12.17,47.59359,-54.27349
2023-01-12 09:04:00+00:00,301.0,8.6,298.0,10.08,12.17,47.59359,-54.27349
2023-01-12 09:14:00+00:00,310.0,7.44,309.0,9.03,12.17,47.59359,-54.27349
2023-01-12 09:24:00+00:00,290.0,7.71,294.0,8.91,12.17,47.59359,-54.27349
2023-01-12 09:34:00+00:00,294.0,7.39,288.0,8.51,12.17,47.59359,-54.27349
2023-01-12 09:44:00+00:00,307.0,7.25,307.0,9.13,12.17,47.59359,-54.27349
2023-01-12 09:54:00+00:00,304.0,8.87,305.0,10.19,12.17,47.59359,-54.27349
2023-01-12 10:04:00+00:00,293.0,7.99,304.0,9.03,12.17,47.59359,-54.27349
2023-01-12 10:14:00+00:00,300.0,7.54,301.0,8.99,12.09,47.59359,-54.27349
2023-01-12 10:24:00+00:00,300.0,7.61,303.0,8.62,12.09,47.59359,-54.27349
2023-01-12 10:34:00+00:00,313.0,8.5,319.0,10.05,12.09,47.59359,-54.27349
2023-01-12 10:44:00+00:00,299.0,8.09,311.0,9.22,12.09,47.59359,-54.27349
2023-01-12 10:54:00+00:00,288.0,7.3,304.0,9.03,12.09,47.59359,-54.27349
2023-01-12 11:04:00+00:00,287.0,8.15,285.0,9.02,12.09,47.59359,-54.27349
2023-01-12 11:14:00+00:00,303.0,8.2,311.0,9.43,12.09,47.59359,-54.27349
2023-01-12 11:24:00+00:00,303.0,9.3,306.0,10.74,12.09,47.59359,-54.27349
2023-01-12 11:34:00+00:00,311.0,7.93,317.0,9.94,12.09,47.59359,-54.27349
2023-01-12 11:44:00+00:00,301.0,7.39,302.0,8.89,12.09,47.59359,-54.27349
2023-01-12 11:54:00+00:00,292.0,6.35,287.0,7.47,12.09,47.59359,-54.27349
2023-01-12 12:04:00+00:00,311.0,5.84,300.0,8.35,12.09,47.59359,-54.27349
2023-01-12 12:14:00+00:00,301.0,5.2,300.0,7.16,12.65,47.59359,-54.27349
2023-01-12 12:24:00+00:00,310.0,7.3,318.0,9.59,12.65,47.59359,-54.27349
2023-01-12 12:34:00+00:00,287.0,6.38,292.0,8.27,12.65,47.59359,-54.27349
2023-01-12 12:44:00+00:00,298.0,8.63,301.0,9.51,12.65,47.59359,-54.27349
2023-01-12 12:54:00+00:00,299.0,8.77,302.0,9.98,12.65,47.59359,-54.27349
2023-01-12 13:04:00+00:00,330.0,7.44,333.0,8.94,12.65,47.59359,-54.27349
2023-01-12 13:14:00+00:00,316.0,7.86,301.0,10.5,13.53,47.59359,-54.27349
2023-01-12 13:24:00+00:00,304.0,6.1,301.0,8.1,13.53,47.59359,-54.27349
2023-01-12 13:34:00+00:00,305.0,6.91,306.0,9.21,13.53,47.59359,-54.27349
2023-01-12 13:44:00+00:00,306.0,6.88,299.0,9.08,13.53,47.59359,-54.27349
2023-01-12 13:54:00+00:00,303.0,7.69,306.0,10.02,13.53,47.59359,-54.27349
2023-01-12 14:04:00+00:00,313.0,8.37,314.0,9.7,13.53,47.59359,-54.27349
2023-01-12 14:14:00+00:00,318.0,6.95,307.0,9.39,14.4,47.59359,-54.27349
2023-01-12 14:24:00+00:00,303.0,8.22,300.0,9.24,14.4,47.59359,-54.27349
2023-01-12 14:34:00+00:00,308.0,8.6,314.0,9.5,14.4,47.59359,-54.27349
2023-01-12 14:44:00+00:00,297.0,7.81,300.0,8.74,14.4,47.59359,-54.27349
2023-01-12 14:54:00+00:00,334.0,7.72,340.0,9.46,14.4,47.59359,-54.27349
2023-01-12 15:04:00+00:00,327.0,5.7,332.0,7.1,14.4,47.59359,-54.27349
2023-01-12 15:14:00+00:00,308.0,7.33,310.0,9.02,14.64,47.59359,-54.27349
2023-01-12 15:24:00+00:00,310.0,7.65,304.0,9.47,14.64,47.59359,-54.27349
2023-01-12 15:34:00+00:00,286.0,7.22,288.0,7.85,14.64,47.59359,-54.27349
2023-01-12 15:44:00+00:00,297.0,7.97,306.0,9.11,14.64,47.59359,-54.27349
2023-01-12 15:54:00+00:00,308.0,7.84,310.0,9.08,14.64,47.59359,-54.27349
2023-01-12 16:04:00+00:00,294.0,6.72,298.0,8.62,14.64,47.59359,-54.27349
2023-01-12 16:14:00+00:00,303.0,8.11,305.0,9.28,13.68,47.59359,-54.27349
2023-01-12 16:24:00+00:00,301.0,7.97,309.0,9.11,13.68,47.59359,-54.27349
2023-01-12 16:34:00+00:00,300.0,7.34,297.0,8.59,13.68,47.59359,-54.27349
2023-01-12 16:44:00+00:00,300.0,6.52,303.0,7.73,13.68,47.59359,-54.27349
2023-01-12 16:54:00+00:00,310.0,5.24,307.0,6.16,13.68,47.59359,-54.27349
2023-01-12 17:04:00+00:00,298.0,7.59,308.0,8.71,13.68,47.59359,-54.27349
2023-01-12 17:14:00+00:00,297.0,6.53,307.0,7.64,13.68,47.59359,-54.27349
2023-01-12 17:24:00+00:00,303.0,6.3,305.0,8.02,13.68,47.59359,-54.27349
2023-01-12 17:34:00+00:00,310.0,6.82,314.0,8.72,13.68,47.59359,-54.27349
2023-01-12 17:44:00+00:00,310.0,7.56,308.0,8.87,13.68,47.59359,-54.27349
2023-01-12 17:54:00+00:00,314.0,5.91,305.0,7.29,13.68,47.59359,-54.27349
2023-01-12 18:04:00+00:00,311.0,4.79,307.0,5.93,13.68,47.59359,-54.27349
2023-01-12 18:14:00+00:00,303.0,5.07,299.0,6.6,13.68,47.59359,-54.27349
2023-01-12 18:24:00+00:00,303.0,6.75,306.0,7.55,13.68,47.59359,-54.27349
2023-01-12 18:34:00+00:00,300.0,6.48,309.0,7.42,13.68,47.59359,-54.27349
2023-01-12 18:44:00+00:00,283.0,4.72,280.0,6.48,13.68,47.59359,-54.27349
2023-01-12 18:54:00+00:00,303.0,5.5,302.0,6.43,13.68,47.59359,-54.27349
2023-01-12 19:04:00+00:00,293.0,5.82,298.0,7.18,13.68,47.59359,-54.27349
2023-01-12 19:14:00+00:00,304.0,6.26,302.0,7.55,14.32,47.59359,-54.27349
2023-01-12 19:24:00+00:00,318.0,4.12,302.0,6.46,14.32,47.59359,-54.27349
2023-01-12 19:34:00+00:00,309.0,6.85,310.0,7.92,14.32,47.59359,-54.27349
2023-01-12 19:44:00+00:00,322.0,4.52,305.0,5.97,14.32,47.59359,-54.27349
2023-01-12 19:54:00+00:00,298.0,7.72,292.0,9.98,14.32,47.59359,-54.27349
2023-01-12 20:04:00+00:00,306.0,5.17,300.0,6.47,14.32,47.59359,-54.27349
2023-01-12 20:14:01+00:00,311.0,4.36,307.0,5.83,12.65,47.59359,-54.27349
2023-01-12 20:24:01+00:00,312.0,4.1,302.0,5.27,12.65,47.59359,-54.27349
2023-01-12 20:34:01+00:00,316.0,3.26,288.0,5.62,12.65,47.59359,-54.27349
2023-01-12 20:44:01+00:00,300.0,5.39,303.0,6.55,12.65,47.59359,-54.27349
2023-01-12 20:54:01+00:00,302.0,5.33,305.0,6.59,12.65,47.59359,-54.27349
2023-01-12 21:04:01+00:00,294.0,5.62,300.0,7.45,12.65,47.59359,-54.27349
2023-01-12 21:14:01+00:00,310.0,5.16,306.0,7.13,12.49,47.59359,-54.27349
2023-01-12 21:24:01+00:00,300.0,3.88,290.0,6.22,12.49,47.59359,-54.27349
2023-01-12 21:34:01+00:00,318.0,4.05,302.0,5.15,12.49,47.59359,-54.27349
2023-01-12 21:44:01+00:00,318.0,5.43,312.0,6.42,12.49,47.59359,-54.27349
2023-01-12 21:54:01+00:00,322.0,5.17,307.0,6.42,12.49,47.59359,-54.27349
2023-01-12 22:04:01+00:00,317.0,4.0,315.0,5.51,12.49,47.59359,-54.27349
2023-01-12 22:14:00+00:00,304.0,5.69,301.0,7.12,12.41,47.59359,-54.27349
2023-01-12 22:24:00+00:00,311.0,4.57,299.0,6.73,12.41,47.59359,-54.27349
2023-01-12 22:34:00+00:00,308.0,4.11,305.0,5.35,12.41,47.59359,-54.27349
2023-01-12 22:44:00+00:00,294.0,4.19,283.0,5.09,12.41,47.59359,-54.27349
2023-01-12 22:54:00+00:00,291.0,4.16,298.0,4.86,12.41,47.59359,-54.27349
2023-01-12 23:04:00+00:00,297.0,4.82,299.0,5.59,12.41,47.59359,-54.27349
2023-01-12 23:14:00+00:00,302.0,4.48,304.0,5.12,12.41,47.59359,-54.27349
2023-01-12 23:24:00+00:00,299.0,4.42,304.0,5.28,12.41,47.59359,-54.27349
2023-01-12 23:34:00+00:00,301.0,4.99,305.0,5.75,12.41,47.59359,-54.27349
2023-01-12 23:44:00+00:00,314.0,4.58,310.0,5.77,12.41,47.59359,-54.27349
2023-01-12 23:54:00+00:00,323.0,5.39,325.0,6.75,12.41,47.59359,-54.27349
